Simultaneous Nadir Overpasses (SNOs) Predictions

Prediction of SNOs between GOES-17 and AQUA Satellite Orbit:

Table of predicted SNOs for the next 14.0 days since TLE Epoch: 10/9/2021
Index Date Time (GOES-17) GOES-17 Lat,Lon AQUA Lat,Lon Distance(km) Time Diff (sec)
1 10/10/2021 22:42:35 -0.04,-137.19 0.15,-136.44 86.94 80
2 10/11/2021 11:01:09 0.03,-137.19 0.99,-141.58 499.72 80
3 10/12/2021 22:30:23 -0.03,-137.17 0.76,-133.47 420.87 80
4 10/13/2021 10:48:58 0.03,-137.17 0.32,-138.63 165.92 80
5 10/15/2021 10:39:26 0.02,-137.14 -0.30,-135.67 167.68 80
6 10/15/2021 22:58:10 -0.02,-137.13 -0.79,-140.86 423.64 80
7 10/17/2021 22:45:58 -0.02,-137.10 -0.16,-137.90 90.02 80
8 10/19/2021 22:36:25 -0.02,-137.08 0.42,-134.93 243.58 80
9 10/20/2021 10:55:01 0.02,-137.07 0.66,-140.09 343.31 80
10 10/22/2021 10:42:49 0.02,-137.03 0.02,-137.13 10.67 80
